Location: *
(46.4000°N, 12.6667°E)
Time: 00:33:55
(UTC+00:00)

CZ-4C R/B - Visible Passes

Search period start: 17 June 2021 00:00
Search period end: 27 June 2021 00:00
Orbit: 609 x 1392 km, 63.4° (Epoch: 16 June)

Date Brightness Start Highest point End Pass type
(mag) Time Alt. Az. Time Alt. Az. Time Alt. Az.
18 Jun 3.9 01:52:51 10° SSE 01:56:30 22° ESE 02:00:37 10° ENE visible
19 Jun 2.7 02:24:42 10° SSW 02:29:21 51° ESE 02:34:55 10° NE visible
20 Jun 4.0 01:12:00 10° SSE 01:15:08 17° ESE 01:18:35 10° ENE visible
21 Jun 2.9 01:43:51 13° S 01:47:52 41° ESE 01:53:12 10° NE visible
22 Jun 4.1 00:31:27 10° SE 00:33:47 13° ESE 00:36:17 10° ENE visible
22 Jun 2.1 02:16:19 11° SW 02:21:03 89° NW 02:27:01 10° NE visible
23 Jun 3.1 01:03:33 18° SSE 01:06:26 33° ESE 01:11:26 10° NE visible
23 Jun 4.2 23:52:00 10° ESE 23:52:28 10° ESE 23:52:56 10° E visible
24 Jun 2.1 01:35:56 19° SSW 01:39:29 75° SE 01:45:22 10° NE visible
25 Jun 3.3 00:23:07 21° SSE 00:25:01 26° ESE 00:29:35 10° ENE visible
25 Jun 2.6 02:08:17 11° WSW 02:13:00 54° NW 02:18:57 10° NE visible
26 Jun 2.2 00:55:25 28° SSW 00:57:58 61° ESE 01:03:42 10° NE visible
26 Jun 3.5 23:42:32 20° SE 23:43:38 21° ESE 23:47:40 10° ENE visible
